Stations météo

réclame
Mon MeteoGroup
Ingolstadt (Flugplatz), Allemagne (10860): Température de l'air & dewpoint: 15.06.2018 12:00:00 - 21.06.2018 12:00:00 (CEST)Ingolstadt (Flugplatz), Allemagne (10860): Vitesse du vent: 15.06.2018 12:00:00 - 21.06.2018 12:00:00 (CEST)Ingolstadt (Flugplatz), Allemagne (10860): Direction du vent: 15.06.2018 12:00:00 - 21.06.2018 12:00:00 (CEST)Ingolstadt (Flugplatz), Allemagne (10860): reduced air pressure: 15.06.2018 12:00:00 - 21.06.2018 12:00:00 (CEST)Ingolstadt (Flugplatz), Allemagne (10860): visibility: 15.06.2018 12:00:00 - 21.06.2018 12:00:00 (CEST)
Date & Time tt [°C] td [°C] ff [km/h] ff [knt] dd ppp [hPa] vv [km]
21.06.2018 12:00:00 27,3 16,2 18 10 W 1012,8 50
21.06.2018 11:00:00 25,3 16,2 14 8 W 1013,4 45
21.06.2018 10:00:00 24,9 15,1 14 8 W 1014,0 45
21.06.2018 09:00:00 22,2 14,9 7 4 W 1014,7 30
21.06.2018 08:00:00 20,1 15,2 4 2 NE 1015,4 25
21.06.2018 07:00:00 17,8 15,5 0 0 N 1016,0 25
21.06.2018 06:00:00 14,2 13,4 4 2 WSW 1016,7 20
21.06.2018 05:00:00 14,5 13,3 4 2 S 1016,7 1,7
21.06.2018 04:00:00 15,1 13,6 4 2 S 1017,1 1,1
21.06.2018 03:00:00 15,6 14,1 4 2 S 1017,3 6
21.06.2018 02:00:00 16,7 15,1 4 2 N 1017,5 6
21.06.2018 01:00:00 17,7 15,1 0 0 N 1017,8 6
21.06.2018 00:00:00 18,6 15,7 4 2 S 1018,1 6
20.06.2018 23:00:00 19,9 15,6 4 2 S 1018,0 6
20.06.2018 22:00:00 21,9 16,1 0 0 N 1017,6 6
20.06.2018 21:00:00 25,3 14,5 0 0 N 1017,0 7
20.06.2018 20:00:00 27,1 12,6 4 2 N 1016,9 70
20.06.2018 19:00:00 27,5 12,6 4 2 S 1017,0 70
20.06.2018 18:00:00 27,4 12,6 7 4 NNE 1017,4 70
20.06.2018 17:00:00 27,6 12,5 7 4 NE 1018,0 70
20.06.2018 16:00:00 27,0 12,5 7 4 E 1018,6 70
20.06.2018 15:00:00 27,1 12,5 7 4 E 1019,0 70
20.06.2018 14:00:00 26,9 12,1 11 6 ENE 1019,5 70
20.06.2018 13:00:00 26,4 12,3 11 6 ENE 1020,1 70
20.06.2018 12:00:00 25,6 12,4 11 6 E 1020,6 60
20.06.2018 11:00:00 24,6 13,8 11 6 SE 1020,9 50
20.06.2018 10:00:00 23,7 14,9 7 4 E 1021,4 45
20.06.2018 09:00:00 21,4 15,2 7 4 E 1021,9 35
20.06.2018 08:00:00 19,0 15,5 7 4 N 1022,5 30
20.06.2018 07:00:00 17,4 14,6 4 2 ENE 1022,8 25
20.06.2018 06:00:00 14,4 13,5 0 0 N 1023,4 25
20.06.2018 05:00:00 14,0 13,3 4 2 S 1023,4 0,1
20.06.2018 04:00:00 14,3 13,5 0 0 N 1023,4 0,1
20.06.2018 03:00:00 15,2 14,0 4 2 W 1023,4 0,7
20.06.2018 02:00:00 16,3 15,1 4 2 SSE 1023,4 6
20.06.2018 01:00:00 17,1 15,2 4 2 SSE 1023,5 6
20.06.2018 00:00:00 18,4 15,3 0 0 N 1023,3 7
19.06.2018 23:00:00 20,1 16,3 0 0 N 1023,1 7
19.06.2018 22:00:00 21,0 15,1 4 2 SE 1022,9 7
19.06.2018 21:00:00 23,2 13,7 4 2 E 1022,2 8
19.06.2018 20:00:00 23,9 14,3 4 2 SE 1021,9 8
19.06.2018 19:00:00 23,6 13,0 7 4 N 1022,2 60
19.06.2018 18:00:00 24,0 12,5 7 4 WNW 1022,1 60
19.06.2018 17:00:00 23,7 12,5 11 6 NW 1022,5 60
19.06.2018 16:00:00 23,7 12,4 11 6 NW 1022,7 60
19.06.2018 15:00:00 23,2 12,0 7 4 WNW 1023,1 50
19.06.2018 14:00:00 22,4 12,4 14 8 NW 1023,4 50
19.06.2018 13:00:00 21,9 13,1 11 6 WNW 1023,8 50
19.06.2018 12:00:00 21,5 12,4 11 6 W 1023,8 50
19.06.2018 11:00:00 20,4 12,5 14 8 W 1024,3 50
19.06.2018 10:00:00 20,0 13,0 14 8 W 1024,4 45
19.06.2018 09:00:00 18,5 12,4 7 4 WSW 1024,5 45
19.06.2018 08:00:00 16,3 13,4 4 2 N 1024,6 45
19.06.2018 07:00:00 14,6 12,5 4 2 N 1024,6 40
19.06.2018 06:00:00 13,2 11,6 4 2 S 1024,6 35
19.06.2018 05:00:00 13,5 11,5 4 2 SW 1024,1 6
19.06.2018 04:00:00 13,1 11,4 4 2 N 1024,0 7
19.06.2018 03:00:00 13,2 11,2 4 2 S 1023,7 6
19.06.2018 02:00:00 14,0 11,7 4 2 S 1023,6 7
19.06.2018 01:00:00 15,0 11,3 7 4 W 1023,5 7
19.06.2018 00:00:00 15,2 11,9 4 2 N 1023,3 45
18.06.2018 23:00:00 17,0 11,3 4 2 S 1022,7 45
18.06.2018 22:00:00 19,8 10,9 7 4 NW 1021,7 50
18.06.2018 21:00:00 21,3 10,2 11 6 NW 1021,0 55
18.06.2018 20:00:00 22,6 9,6 11 6 NW 1020,6 55
18.06.2018 19:00:00 22,8 9,2 11 6 NW 1020,6 55
18.06.2018 18:00:00 23,2 8,8 14 8 NW 1020,5 55
18.06.2018 17:00:00 22,7 9,0 11 6 WNW 1020,6 55
18.06.2018 16:00:00 22,5 9,6 14 8 WNW 1020,9 55
18.06.2018 15:00:00 21,9 10,4 14 8 WNW 1021,1 50
18.06.2018 14:00:00 21,4 10,4 14 8 W 1021,7 45
18.06.2018 13:00:00 21,1 10,4 14 8 W 1021,9 40
18.06.2018 12:00:00 20,3 10,9 11 6 W 1021,9 40
18.06.2018 11:00:00 18,9 10,3 14 8 NW 1022,3 40
18.06.2018 10:00:00 17,5 10,3 11 6 NW 1022,4 40
18.06.2018 09:00:00 17,2 11,0 11 6 WNW 1022,2 40
18.06.2018 08:00:00 16,5 11,6 7 4 W 1021,8 40
18.06.2018 07:00:00 16,0 12,0 7 4 W 1021,7 30
18.06.2018 06:00:00 15,9 11,7 7 4 W 1021,4 30
18.06.2018 05:00:00 16,1 12,0 7 4 W 1020,9 7
18.06.2018 04:00:00 16,5 12,6 7 4 W 1020,6 7
18.06.2018 03:00:00 16,9 12,5 11 6 WSW 1020,5 8
18.06.2018 02:00:00 17,0 12,5 7 4 WSW 1020,4 8
18.06.2018 01:00:00 18,4 11,5 4 2 W 1019,9 8
18.06.2018 00:00:00 19,1 11,2 7 4 W 1019,7 8
17.06.2018 23:00:00 19,7 10,9 7 4 WNW 1019,2 8
17.06.2018 22:00:00 20,2 11,3 7 4 NW 1018,5 8
17.06.2018 21:00:00 20,9 10,6 7 4 NW 1017,4 9
17.06.2018 20:00:00 21,6 10,6 14 8 NNW 1017,1 9
17.06.2018 19:00:00 22,8 11,7 14 8 NNW 1016,2 2,7
17.06.2018 18:00:00 23,5 11,4 18 10 WNW 1015,6 10
17.06.2018 17:00:00 23,3 11,3 18 10 NW 1016,1 9
17.06.2018 16:00:00 23,0 13,1 11 6 WNW 1016,0 9
17.06.2018 15:00:00 22,1 13,5 14 8 NW 1016,5 4,9
17.06.2018 14:00:00 22,1 13,5 14 8 W 1016,4 9
17.06.2018 13:00:00 23,2 12,9 11 6 W 1016,2 9
17.06.2018 12:00:00 22,6 13,8 14 8 W 1016,4 8
17.06.2018 11:00:00 21,6 14,4 14 8 W 1016,4 8
17.06.2018 10:00:00 20,4 13,9 11 6 WNW 1016,5 8
17.06.2018 09:00:00 18,2 13,5 11 6 W 1016,7 7
17.06.2018 08:00:00 16,6 12,7 4 2 N 1016,5 7
17.06.2018 07:00:00 14,3 12,1 4 2 SW 1016,5 7
17.06.2018 06:00:00 13,0 11,5 0 0 N 1016,6 7
17.06.2018 05:00:00 12,7 11,0 0 0 N 1016,4 6
17.06.2018 04:00:00 11,9 10,1 4 2 SE 1016,4 6
17.06.2018 03:00:00 13,2 10,7 4 2 N 1016,3 7
17.06.2018 02:00:00 13,2 11,0 4 2 SW 1016,2 7
17.06.2018 01:00:00 13,9 11,1 4 2 WSW 1016,2 7
17.06.2018 00:00:00 14,7 11,6 4 2 SSW 1015,9 2,6
16.06.2018 23:00:00 16,3 12,8 0 0 N 1015,5 8
16.06.2018 22:00:00 18,3 13,3 4 2 WNW 1014,8 8
16.06.2018 21:00:00 21,3 12,2 0 0 N 1013,8 8
16.06.2018 20:00:00 23,6 9,4 4 2 N 1013,5 10
16.06.2018 19:00:00 24,6 7,6 7 4 N 1013,2 10
16.06.2018 18:00:00 25,0 8,0 7 4 NNE 1013,0 13
16.06.2018 17:00:00 24,9 7,6 7 4 NNE 1013,4 12
16.06.2018 16:00:00 24,5 8,0 4 2 WNW 1013,7 11
16.06.2018 15:00:00 24,5 8,9 4 2 NW 1014,1 10
16.06.2018 14:00:00 23,7 8,9 7 4 NNE 1014,5 12
16.06.2018 13:00:00 22,1 10,0 7 4 N 1015,4 12
16.06.2018 12:00:00 22,7 9,7 7 4 NNE 1015,5 11
16.06.2018 11:00:00 21,2 11,6 7 4 E 1015,6 8
16.06.2018 10:00:00 19,4 12,1 4 2 SSW 1016,2 8
16.06.2018 09:00:00 17,1 11,6 4 2 NE 1016,5 8
16.06.2018 08:00:00 14,7 11,8 4 2 NE 1016,8 7
16.06.2018 07:00:00 12,6 10,8 4 2 E 1016,9 7
16.06.2018 06:00:00 10,3 9,2 4 2 SE 1017,1 4,2
16.06.2018 05:00:00 9,9 8,9 0 0 N 1017,3 0,2
16.06.2018 04:00:00 10,2 9,3 4 2 SSW 1017,4 1,8
16.06.2018 03:00:00 10,4 9,2 4 2 SSW 1017,6 3,1
16.06.2018 02:00:00 11,2 9,5 4 2 SSW 1017,6 7
16.06.2018 01:00:00 12,0 10,1 0 0 N 1017,6 8
16.06.2018 00:00:00 13,5 11,5 0 0 N 1017,1 8
15.06.2018 23:00:00 14,6 11,1 4 2 S 1017,0 8
15.06.2018 22:00:00 16,6 10,5 0 0 N 1016,5 8
15.06.2018 21:00:00 19,4 9,2 7 4 NW 1015,8 10
15.06.2018 20:00:00 21,3 7,0 7 4 SE 1015,4 11
15.06.2018 19:00:00 22,2 6,5 4 2 ENE 1015,1 50
15.06.2018 18:00:00 21,6 7,4 7 4 ENE 1015,2 50
15.06.2018 17:00:00 22,2 7,5 4 2 W 1015,4 50
15.06.2018 16:00:00 20,8 7,4 4 2 SW 1015,8 50
15.06.2018 15:00:00 21,3 7,1 7 4 N 1016,0 40
15.06.2018 14:00:00 20,0 7,0 4 2 S 1016,5 40
15.06.2018 13:00:00 19,2 6,9 7 4 N 1016,8 40
15.06.2018 12:00:00 19,4 7,0 7 4 E 1016,8 40

tt = Température de l'air
td = dewpoint
ff = Vitesse du vent
dd = Direction du vent
ppp = reduced air pressure
vv = visibility

stations d'obs. à proximité